CW3642 Weather Reports


Display with metric or nautical units.
time (UTC)temp
F
wind
direction
speed
MPH
gust
MPH
rain 1hr
in
rain 24hr
in
rain mn
in
humidity
%
barometer
mb
20260503212847 61 360 19.0 15.0 0.00 0.00 0.00 59 1002.2
20260503212347 61 360 9.0 15.0 0.00 0.00 0.00 60 1002.2
20260503211347 60 360 11.0 15.0 0.00 0.00 0.00 60 1002.3
20260503210847 60 360 9.0 15.0 0.00 0.00 0.00 62 1002.2
20260503205847 58 360 13.0 15.0 0.00 0.00 0.00 64 1002.6
20260503205347 57 360 11.0 15.0 0.00 0.00 0.00 66 1002.5
20260503204847 57 360 5.0 15.0 0.00 0.00 0.00 65 1002.8
20260503204347 57 360 10.0 15.0 0.00 0.00 0.00 65 1002.8
20260503203847 57 360 8.0 15.0 0.00 0.00 0.00 67 1002.9
20260503203347 56 360 6.0 15.0 0.00 0.00 0.00 67 1003.0
20260503201847 56 360 10.0 15.0 0.00 0.00 0.00 67 1003.5
20260503201348 56 360 8.0 15.0 0.00 0.00 0.00 66 1003.6
20260503200847 57 360 10.0 15.0 0.00 0.00 0.00 65 1003.7
20260503200347 57 360 2.0 15.0 0.00 0.00 0.00 65 1003.7
20260503195847 56 360 6.0 15.0 0.00 0.00 0.00 66 1003.9
20260503195347 56 360 13.0 15.0 0.00 0.00 0.00 66 1004.0
20260503194847 56 360 4.0 15.0 0.00 0.00 0.00 65 1004.1
20260503194347 57 360 5.0 15.0 0.00 0.00 0.00 64 1004.2
20260503193347 57 190 8.0 15.0 0.00 0.00 0.00 64 1004.3
20260503192847 57 360 19.0 15.0 0.00 0.00 0.00 61 1004.3
20260503192347 58 360 12.0 15.0 0.00 0.00 0.00 60 1004.6
20260503191847 58 360 14.0 15.0 0.00 0.00 0.00 60 1004.6
20260503191347 58 360 8.0 15.0 0.00 0.00 0.00 58 1004.8
20260503190847 59 360 5.0 15.0 0.00 0.00 0.00 57 1004.8
20260503190347 59 360 8.0 15.0 0.00 0.00 0.00 58 1004.7
20260503185847 59 360 13.0 15.0 0.00 0.00 0.00 57 1004.7
20260503185347 59 360 5.0 15.0 0.00 0.00 0.00 57 1004.8
20260503184847 59 360 23.0 15.0 0.00 0.00 0.00 58 1004.7
20260503183847 58 360 10.0 15.0 0.00 0.00 0.00 59 1004.8
20260503183347 58 360 8.0 15.0 0.00 0.00 0.00 60 1004.9
20260503182847 58 360 10.0 15.0 0.00 0.00 0.00 59 1005.0
20260503182347 58 360 5.0 15.0 0.00 0.00 0.00 61 1004.9
20260503181847 57 360 6.0 15.0 0.00 0.00 0.00 62 1005.0
20260503181347 56 360 23.0 15.0 0.00 0.00 0.00 66 1005.0
20260503180847 55 360 8.0 15.0 0.00 0.00 0.00 66 1005.0
20260503175832 53 360 11.0 9.0 0.00 0.00 0.00 69 1005.0
20260503174833 52 360 5.0 9.0 0.00 0.00 0.00 68 1005.2
20260503174332 53 360 10.0 9.0 0.00 0.00 0.00 67 1005.3
20260503173832 53 360 8.0 13.0 0.00 0.00 0.00 67 1005.3
20260503172846 53 360 5.0 6.0 0.00 0.00 0.00 67 1005.4
20260503172346 53 360 6.0 6.0 0.00 0.00 0.00 69 1005.4
20260503171846 52 360 4.0 6.0 0.00 0.00 0.00 69 1005.4
20260503171346 52 360 8.0 6.0 0.00 0.00 0.00 71 1005.4
20260503170846 51 360 10.0 6.0 0.00 0.00 0.00 71 1005.4
20260503170346 51 360 10.0 6.0 0.00 0.00 0.00 72 1005.5
20260503150846 47 360 5.0 6.0 0.00 0.00 0.00 81 1006.3
20260503150346 47 360 9.0 6.0 0.00 0.00 0.00 81 1006.3
20260503131318 44 360 5.0 0.0 0.00 0.00 0.00 78 1006.8
20260503130348 43 360 0.0 0.0 0.00 0.00 0.00 81 1006.8
20260503110818 39 360 3.0 0.0 0.00 0.00 0.00 79 1007.8
20260503110318 38 360 4.0 0.0 0.00 0.00 0.00 80 1007.7
20260503090325 32 360 0.0 0.0 0.00 0.00 0.00 84 1008.8
20260503080325 32 360 0.0 0.0 0.00 0.00 0.00 86 1009.4
20260503072825 30 360 0.0 0.0 0.00 0.00 0.00 87 1009.8
20260503072325 30 360 0.0 0.0 0.00 0.00 0.00 88 1009.9
20260503071825 30 360 0.0 0.0 0.00 0.00 0.00 88 1009.8
20260503071325 30 360 0.0 0.0 0.00 0.00 0.00 88 1009.9
20260503070825 30 360 0.0 0.0 0.00 0.00 0.00 88 1010.0
20260503070325 30 360 0.0 0.0 0.00 0.00 0.00 89 1010.0
20260503053833 29 360 0.0 0.0 0.00 0.00 0.00 90 1011.5
20260503052833 29 360 0.0 0.0 0.00 0.00 0.00 89 1011.6
20260503052334 29 360 0.0 0.0 0.00 0.00 0.00 88 1011.6
20260503051833 29 360 0.0 0.0 0.00 0.00 0.00 88 1011.7
20260503050833 29 360 0.0 0.0 0.00 0.00 0.00 88 1011.8
20260503050333 29 360 0.0 0.0 0.00 0.00 0.00 89 1011.9
20260503045833 29 360 0.0 0.0 0.00 0.00 0.00 89 1011.9
20260503045333 29 360 0.0 0.0 0.00 0.00 0.00 88 1012.0
20260503044833 29 360 0.0 0.0 0.00 0.00 0.00 88 1012.0
20260503044333 29 360 0.0 0.0 0.00 0.00 0.00 88 1012.1
20260503043833 29 360 0.0 0.0 0.00 0.00 0.00 87 1012.1
20260503043333 29 360 0.0 0.0 0.00 0.00 0.00 86 1012.3
20260503042833 29 360 0.0 0.0 0.00 0.00 0.00 86 1012.3
20260503042333 29 360 0.0 0.0 0.00 0.00 0.00 86 1012.3
20260503041833 29 360 0.0 0.0 0.00 0.00 0.00 86 1012.4
20260503041333 30 360 0.0 0.0 0.00 0.00 0.00 85 1012.4
20260503040833 30 360 0.0 0.0 0.00 0.00 0.00 85 1012.5
20260503040333 30 360 0.0 0.0 0.00 0.00 0.00 84 1012.6
20260503035833 30 360 0.0 0.0 0.00 0.00 0.00 84 1012.6
20260503035333 30 360 0.0 0.0 0.00 0.00 0.00 84 1012.5
20260503034833 30 360 0.0 0.0 0.00 0.00 0.00 84 1012.5
20260503034333 30 360 0.0 0.0 0.00 0.00 0.00 83 1012.6
20260503033833 30 360 0.0 0.0 0.00 0.00 0.00 83 1012.6
20260503032833 31 360 0.0 0.0 0.00 0.00 0.00 82 1012.7
20260503032333 31 360 0.0 0.0 0.00 0.00 0.00 80 1012.7
20260503031833 31 360 0.0 0.0 0.00 0.00 0.00 79 1012.9
20260503031333 31 360 0.0 0.0 0.00 0.00 0.00 80 1012.9
20260503030833 32 360 0.0 0.0 0.00 0.00 0.00 79 1012.9
20260503030333 32 360 0.0 0.0 0.00 0.00 0.00 79 1012.9
20260503025833 32 360 0.0 0.0 0.00 0.00 0.00 79 1013.0
20260503025333 32 360 0.0 0.0 0.00 0.00 0.00 78 1013.0
20260503024833 32 360 0.0 0.0 0.00 0.00 0.00 78 1013.1
20260503023833 33 360 0.0 0.0 0.00 0.00 0.00 76 1013.2
20260503023333 33 360 0.0 0.0 0.00 0.00 0.00 76 1013.4
20260503022833 33 360 0.0 0.0 0.00 0.00 0.00 76 1013.3
20260503022333 33 360 0.0 0.0 0.00 0.00 0.00 75 1013.3
20260503021833 34 360 0.0 0.0 0.00 0.00 0.00 75 1013.3
20260503021333 34 360 0.0 0.0 0.00 0.00 0.00 73 1013.3
20260503015322 35 360 0.0 5.0 0.00 0.00 0.00 68 1013.2
20260503013822 37 360 0.0 5.0 0.00 0.00 0.00 65 1013.3
20260503013322 37 360 0.0 5.0 0.00 0.00 0.00 64 1013.3
20260503011822 39 360 0.0 5.0 0.00 0.00 0.00 61 1013.4
20260503011322 40 360 0.0 5.0 0.00 0.00 0.00 59 1013.4
20260503010822 40 360 0.0 5.0 0.00 0.00 0.00 58 1013.4
20260503010322 41 360 0.0 5.0 0.00 0.00 0.00 56 1013.4
20260503005322 42 360 0.0 5.0 0.00 0.00 0.00 53 1013.4
20260503004822 42 360 0.0 5.0 0.00 0.00 0.00 51 1013.4
20260503004322 43 360 0.0 5.0 0.00 0.00 0.00 48 1013.4
20260503003822 43 360 0.0 5.0 0.00 0.00 0.00 47 1013.3
20260503002822 44 360 0.0 5.0 0.00 0.00 0.00 44 1013.5
20260503002322 44 360 0.0 5.0 0.00 0.00 0.00 43 1013.5
20260503001822 44 360 3.0 5.0 0.00 0.00 0.00 42 1013.5
20260503001322 45 360 1.0 5.0 0.00 0.00 0.00 41 1013.5
20260503000822 45 360 5.0 5.0 0.00 0.00 0.00 40 1013.6
20260502235822 45 360 5.0 5.0 0.00 0.00 0.00 40 1013.6
20260502233822 47 360 2.0 5.0 0.00 0.00 0.00 37 1013.8
20260502233322 47 360 2.0 5.0 0.00 0.00 0.00 35 1013.8
20260502232822 47 360 3.0 5.0 0.00 0.00 0.00 35 1013.8
20260502232322 48 360 2.0 5.0 0.00 0.00 0.00 36 1013.9
20260502231822 48 360 3.0 5.0 0.00 0.00 0.00 34 1013.9
20260502230823 47 360 2.0 5.0 0.00 0.00 0.00 37 1013.9
20260502230322 47 360 3.0 5.0 0.00 0.00 0.00 36 1013.9
20260502225822 47 360 0.0 5.0 0.00 0.00 0.00 35 1014.0
20260502225322 47 360 0.0 5.0 0.00 0.00 0.00 38 1013.9
20260502224822 48 360 0.0 5.0 0.00 0.00 0.00 36 1013.8
20260502223822 48 360 0.0 5.0 0.00 0.00 0.00 36 1013.9
20260502223322 48 360 0.0 5.0 0.00 0.00 0.00 37 1013.9
20260502222822 48 360 0.0 5.0 0.00 0.00 0.00 34 1014.0
20260502221322 48 360 0.0 5.0 0.00 0.00 0.00 33 1014.0
20260502220822 49 360 0.0 8.0 0.00 0.00 0.00 34 1014.1
20260502215834 50 360 1.0 8.0 0.00 0.00 0.00 33 1014.4
20260502214834 51 360 0.0 8.0 0.00 0.00 0.00 31 1014.5
20260502214334 51 360 3.0 8.0 0.00 0.00 0.00 32 1014.6
20260502213334 50 360 5.0 8.0 0.00 0.00 0.00 33 1014.8